STPSAT-6

Last updated on Wed Sep 17 2025 00:02:51 GMT+0000 (Coordinated Universal Time)

1 49817U 21118A 25259.56154524 .00000000 00000+0 00000+0 0 9995 2 49817 0.0226 163.9720 0001828 112.5489 169.6284 1.00271107 13827
UTC large
Height (km)
Speed (km/s)
/
Latitude / Longitude
Inclination (degrees)
Orbital Period (minutes)
Azimuth
Elevation
Range (km)
Doppler Factor

Next 0 passes for location: London (51.5072 / 0.1276)

Sorry there are no passes over London.